QPF
0.01 0.01 0.00 0.00 0.00 0.00 0.00 0.00 0.00 0.00 0.00 0.00 0.00 0.00 0.00 0.00 0.00 0.00 0.00 0.01 0.01 0.01 0.01 0.01 0.02 0.03 0.04 0.03 0.02 0.01 0.02 0.02 0.02 0.02 0.01 0.01 0.01 0.02 0.02 0.02 0.02 0.02 0.03 0.04 0.03 0.01 0.01 0.01 0.01
0.01 0.01 0.01 0.01 0.00 0.00 0.00 0.00 0.00 0.00 0.00 0.00 0.00 0.00 0.00 0.00 0.00 0.00 0.00 0.00 0.01 0.01 0.01 0.01 0.02 0.03 0.03 0.02 0.02 0.01 0.02 0.03 0.03 0.02 0.02 0.01 0.02 0.02 0.02 0.03 0.03 0.02 0.03 0.03 0.02 0.01 0.01 0.01 0.00
0.01 0.02 0.02 0.01 0.00 0.00 0.00 0.00 0.00 0.00 0.00 0.00 0.00 0.00 0.00 0.00 0.00 0.00 0.00 0.01 0.01 0.02 0.01 0.01 0.02 0.02 0.02 0.02 0.02 0.02 0.02 0.02 0.03 0.03 0.02 0.02 0.02 0.02 0.02 0.02 0.02 0.03 0.03 0.03 0.01 0.01 0.01 0.01 0.01
0.01 0.02 0.02 0.01 0.00 0.00 0.00 0.00 0.00 0.00 0.00 0.00 0.00 0.00 0.00 0.00 0.00 0.00 0.00 0.01 0.01 0.02 0.02 0.02 0.02 0.03 0.02 0.02 0.03 0.03 0.02 0.02 0.03 0.04 0.02 0.02 0.02 0.02 0.01 0.02 0.02 0.02 0.02 0.03 0.02 0.01 0.01 0.00 0.01
0.01 0.01 0.02 0.01 0.00 0.00 0.00 0.00 0.00 0.00 0.00 0.00 0.00 0.00 0.00 0.00 0.00 0.00 0.00 0.01 0.01 0.02 0.02 0.02 0.02 0.03 0.04 0.03 0.03 0.03 0.04 0.04 0.04 0.04 0.03 0.03 0.03 0.02 0.02 0.01 0.01 0.02 0.02 0.01 0.01 0.01 0.01 0.01 0.00
0.01 0.01 0.01 0.01 0.01 0.00 0.00 0.00 0.00 0.00 0.00 0.00 0.00 0.00 0.00 0.00 0.00 0.00 0.00 0.00 0.01 0.02 0.02 0.02 0.02 0.03 0.04 0.04 0.04 0.04 0.04 0.05 0.05 0.06 0.04 0.03 0.03 0.02 0.01 0.01 0.01 0.02 0.02 0.02 0.03 0.02 0.02 0.01 0.00
0.01 0.01 0.00 0.01 0.01 0.01 0.00 0.00 0.00 0.00 0.00 0.00 0.00 0.00 0.00 0.00 0.00 0.00 0.00 0.01 0.01 0.02 0.03 0.04 0.04 0.05 0.06 0.06 0.06 0.05 0.05 0.06 0.06 0.07 0.06 0.03 0.03 0.02 0.02 0.01 0.01 0.01 0.02 0.02 0.03 0.03 0.03 0.01 0.00
0.02 0.01 0.01 0.00 0.01 0.00 0.01 0.01 0.00 0.00 0.00 0.00 0.00 0.00 0.00 0.00 0.00 0.01 0.01 0.01 0.02 0.03 0.04 0.05 0.05 0.06 0.06 0.06 0.06 0.06 0.06 0.07 0.08 0.07 0.06 0.04 0.03 0.02 0.03 0.02 0.02 0.02 0.02 0.01 0.02 0.02 0.02 0.01 0.00
0.02 0.02 0.01 0.01 0.01 0.01 0.01 0.01 0.01 0.00 0.00 0.00 0.00 0.00 0.00 0.00 0.00 0.01 0.01 0.01 0.02 0.02 0.03 0.05 0.05 0.06 0.06 0.06 0.06 0.07 0.07 0.07 0.08 0.07 0.06 0.05 0.03 0.02 0.02 0.02 0.03 0.02 0.02 0.02 0.02 0.02 0.02 0.01 0.00
0.01 0.01 0.03 0.02 0.01 0.01 0.01 0.01 0.01 0.01 0.01 0.01 0.01 0.00 0.00 0.00 0.00 0.01 0.01 0.01 0.01 0.02 0.03 0.04 0.05 0.07 0.07 0.07 0.06 0.07 0.06 0.06 0.07 0.07 0.06 0.04 0.03 0.02 0.01 0.02 0.02 0.03 0.02 0.02 0.01 0.01 0.02 0.01 0.00
0.01 0.01 0.02 0.03 0.03 0.01 0.01 0.01 0.01 0.01 0.01 0.01 0.01 0.01 0.01 0.01 0.01 0.01 0.01 0.01 0.01 0.02 0.03 0.04 0.04 0.06 0.09 0.08 0.07 0.06 0.05 0.05 0.05 0.05 0.05 0.04 0.03 0.03 0.02 0.01 0.01 0.02 0.02 0.03 0.03 0.02 0.02 0.01 0.00
0.01 0.01 0.02 0.02 0.03 0.02 0.02 0.02 0.01 0.01 0.01 0.01 0.01 0.02 0.02 0.01 0.01 0.01 0.01 0.01 0.02 0.02 0.02 0.04 0.05 0.06 0.08 0.10 0.08 0.06 0.05 0.04 0.04 0.04 0.05 0.04 0.03 0.03 0.02 0.01 0.01 0.01 0.01 0.02 0.03 0.03 0.03 0.02 0.01
0.01 0.01 0.01 0.02 0.03 0.03 0.04 0.03 0.02 0.02 0.02 0.01 0.01 0.01 0.02 0.01 0.01 0.01 0.02 0.02 0.02 0.02 0.03 0.03 0.05 0.07 0.08 0.12 0.12 0.07 0.06 0.05 0.04 0.04 0.04 0.04 0.04 0.04 0.04 0.03 0.03 0.02 0.02 0.02 0.02 0.02 0.02 0.02 0.01
0.00 0.00 0.01 0.02 0.02 0.03 0.04 0.03 0.01 0.03 0.03 0.02 0.01 0.01 0.01 0.01 0.01 0.01 0.02 0.02 0.02 0.02 0.03 0.03 0.04 0.07 0.09 0.10 0.13 0.11 0.08 0.06 0.04 0.04 0.04 0.04 0.05 0.06 0.06 0.05 0.04 0.04 0.03 0.02 0.01 0.01 0.01 0.01 0.01
0.00 0.01 0.01 0.03 0.02 0.02 0.02 0.03 0.03 0.03 0.03 0.01 0.01 0.01 0.01 0.01 0.01 0.01 0.02 0.02 0.03 0.03 0.03 0.04 0.04 0.06 0.08 0.12 0.13 0.15 0.13 0.08 0.05 0.05 0.04 0.04 0.06 0.08 0.10 0.09 0.07 0.07 0.06 0.04 0.03 0.02 0.01 0.01 0.01
0.01 0.02 0.03 0.04 0.02 0.02 0.02 0.03 0.03 0.03 0.02 0.01 0.01 0.01 0.01 0.01 0.01 0.01 0.02 0.03 0.03 0.03 0.02 0.03 0.04 0.05 0.06 0.08 0.13 0.16 0.16 0.14 0.10 0.07 0.05 0.03 0.04 0.05 0.07 0.07 0.06 0.06 0.06 0.05 0.04 0.03 0.01 0.01 0.01
0.01 0.02 0.03 0.03 0.02 0.01 0.01 0.02 0.02 0.02 0.02 0.02 0.01 0.01 0.01 0.01 0.01 0.01 0.02 0.03 0.04 0.03 0.03 0.04 0.05 0.05 0.06 0.06 0.09 0.16 0.17 0.18 0.16 0.12 0.07 0.04 0.03 0.04 0.04 0.04 0.05 0.05 0.05 0.05 0.05 0.03 0.02 0.01 0.01
0.02 0.02 0.02 0.01 0.02 0.01 0.01 0.01 0.01 0.01 0.02 0.02 0.01 0.01 0.01 0.01 0.01 0.01 0.02 0.03 0.04 0.04 0.03 0.05 0.06 0.05 0.05 0.05 0.06 0.12 0.18 0.21 0.20 0.17 0.11 0.05 0.04 0.04 0.05 0.05 0.04 0.05 0.04 0.05 0.06 0.04 0.02 0.01 0.01
0.02 0.01 0.01 0.01 0.01 0.00 0.00 0.01 0.01 0.01 0.01 0.01 0.01 0.01 0.01 0.01 0.02 0.02 0.03 0.05 0.04 0.05 0.04 0.04 0.05 0.06 0.06 0.05 0.05 0.09 0.14 0.17 0.19 0.19 0.13 0.08 0.06 0.05 0.04 0.04 0.05 0.04 0.04 0.04 0.04 0.04 0.03 0.02 0.02
0.01 0.01 0.01 0.01 0.01 0.00 0.00 0.00 0.01 0.00 0.01 0.01 0.01 0.01 0.01 0.02 0.03 0.03 0.03 0.05 0.05 0.06 0.05 0.04 0.04 0.06 0.06 0.05 0.05 0.07 0.11 0.14 0.15 0.18 0.16 0.10 0.08 0.05 0.04 0.04 0.05 0.05 0.05 0.04 0.04 0.04 0.03 0.03 0.02
0.02 0.01 0.01 0.01 0.01 0.00 0.00 0.00 0.00 0.00 0.00 0.00 0.00 0.01 0.02 0.02 0.02 0.02 0.03 0.04 0.06 0.07 0.08 0.05 0.04 0.06 0.07 0.07 0.08 0.10 0.11 0.13 0.14 0.15 0.16 0.11 0.08 0.05 0.03 0.03 0.04 0.05 0.06 0.05 0.05 0.04 0.04 0.03 0.03
0.01 0.01 0.01 0.01 0.01 0.01 0.00 0.01 0.00 0.00 0.00 0.00 0.01 0.01 0.02 0.03 0.02 0.02 0.02 0.03 0.04 0.05 0.07 0.06 0.05 0.06 0.09 0.09 0.10 0.10 0.09 0.10 0.11 0.12 0.11 0.10 0.08 0.06 0.04 0.04 0.04 0.05 0.06 0.08 0.08 0.06 0.05 0.05 0.04
0.01 0.01 0.01 0.01 0.01 0.01 0.01 0.01 0.01 0.00 0.00 0.00 0.01 0.02 0.02 0.03 0.03 0.02 0.02 0.03 0.02 0.03 0.05 0.07 0.05 0.05 0.07 0.08 0.11 0.11 0.10 0.10 0.10 0.11 0.10 0.10 0.10 0.08 0.07 0.05 0.05 0.05 0.06 0.07 0.10 0.10 0.08 0.07 0.05
0.01 0.01 0.01 0.01 0.01 0.01 0.01 0.01 0.01 0.01 0.01 0.00 0.00 0.01 0.02 0.02 0.02 0.02 0.02 0.03 0.03 0.02 0.04 0.06 0.06 0.05 0.05 0.07 0.10 0.11 0.11 0.11 0.11 0.12 0.09 0.10 0.11 0.10 0.09 0.07 0.06 0.06 0.05 0.06 0.07 0.09 0.10 0.09 0.08
0.01 0.01 0.02 0.02 0.02 0.01 0.01 0.00 0.01 0.01 0.01 0.01 0.01 0.01 0.02 0.01 0.01 0.02 0.02 0.02 0.02 0.01 0.02 0.04 0.05 0.06 0.06 0.06 0.09 0.10 0.10 0.11 0.11 0.12 0.10 0.09 0.09 0.10 0.10 0.08 0.06 0.05 0.04 0.06 0.07 0.07 0.08 0.10 0.09
0.00 0.01 0.01 0.01 0.01 0.01 0.01 0.01 0.01 0.01 0.01 0.01 0.01 0.01 0.02 0.01 0.01 0.02 0.02 0.01 0.01 0.01 0.01 0.02 0.03 0.04 0.05 0.06 0.08 0.09 0.09 0.10 0.10 0.10 0.10 0.10 0.08 0.08 0.10 0.09 0.06 0.04 0.04 0.04 0.05 0.07 0.07 0.08 0.10
0.00 0.00 0.01 0.02 0.01 0.01 0.01 0.02 0.01 0.00 0.00 0.01 0.01 0.01 0.01 0.01 0.01 0.02 0.02 0.01 0.01 0.01 0.01 0.01 0.02 0.02 0.04 0.06 0.07 0.08 0.07 0.09 0.08 0.07 0.08 0.11 0.11 0.09 0.09 0.11 0.09 0.06 0.04 0.04 0.04 0.06 0.06 0.06 0.07
0.00 0.01 0.01 0.02 0.02 0.02 0.01 0.01 0.01 0.00 0.00 0.01 0.01 0.01 0.01 0.01 0.01 0.01 0.02 0.01 0.01 0.01 0.01 0.01 0.01 0.02 0.02 0.04 0.06 0.07 0.06 0.07 0.07 0.06 0.06 0.07 0.09 0.11 0.11 0.12 0.13 0.09 0.05 0.04 0.04 0.04 0.04 0.04 0.04
0.01 0.01 0.02 0.02 0.02 0.02 0.02 0.02 0.01 0.01 0.00 0.01 0.01 0.01 0.01 0.00 0.00 0.01 0.01 0.01 0.01 0.01 0.01 0.01 0.01 0.01 0.02 0.03 0.04 0.05 0.05 0.05 0.06 0.05 0.05 0.07 0.07 0.07 0.08 0.08 0.13 0.12 0.07 0.04 0.03 0.02 0.02 0.03 0.03
0.01 0.01 0.02 0.02 0.02 0.02 0.02 0.01 0.01 0.00 0.00 0.00 0.01 0.01 0.01 0.01 0.00 0.00 0.01 0.01 0.01 0.01 0.01 0.01 0.01 0.01 0.02 0.03 0.04 0.04 0.04 0.04 0.05 0.04 0.04 0.04 0.05 0.06 0.07 0.07 0.08 0.11 0.09 0.05 0.03 0.03 0.02 0.02 0.03
MSLP
1015.04 1015.63 1016.43 1017.31 1018.12 1018.73 1019.04 1019.00 1018.65 1018.06 1017.34 1016.61 1015.95 1015.41 1014.99 1014.66 1014.35 1014.03 1013.67 1013.28 1012.89 1012.56 1012.34 1012.27 1012.37 1012.59 1012.89 1013.21 1013.50 1013.74 1013.92 1014.06 1014.20 1014.38 1014.61 1014.88 1015.18 1015.45 1015.68 1015.82 1015.89 1015.90 1015.90 1015.93 1016.03 1016.22 1016.48 1016.79 1017.11
1015.61 1016.30 1017.15 1018.01 1018.74 1019.21 1019.32 1019.07 1018.50 1017.70 1016.82 1015.96 1015.23 1014.67 1014.26 1013.96 1013.70 1013.45 1013.15 1012.82 1012.49 1012.22 1012.06 1012.04 1012.19 1012.46 1012.80 1013.17 1013.50 1013.78 1013.99 1014.16 1014.33 1014.51 1014.74 1015.01 1015.30 1015.56 1015.78 1015.93 1016.00 1016.03 1016.05 1016.10 1016.22 1016.41 1016.68 1016.98 1017.29
1016.27 1017.02 1017.88 1018.70 1019.33 1019.66 1019.60 1019.17 1018.43 1017.50 1016.51 1015.59 1014.82 1014.23 1013.81 1013.52 1013.27 1013.02 1012.74 1012.43 1012.13 1011.90 1011.78 1011.81 1012.01 1012.33 1012.72 1013.13 1013.50 1013.81 1014.05 1014.24 1014.41 1014.59 1014.80 1015.05 1015.30 1015.55 1015.76 1015.91 1016.01 1016.07 1016.14 1016.23 1016.38 1016.60 1016.87 1017.18 1017.48
1016.97 1017.75 1018.60 1019.37 1019.90 1020.11 1019.93 1019.40 1018.57 1017.58 1016.56 1015.63 1014.85 1014.25 1013.81 1013.48 1013.19 1012.90 1012.58 1012.24 1011.93 1011.70 1011.59 1011.65 1011.87 1012.22 1012.65 1013.09 1013.49 1013.82 1014.08 1014.28 1014.45 1014.62 1014.80 1015.02 1015.24 1015.46 1015.66 1015.83 1015.96 1016.08 1016.20 1016.35 1016.55 1016.80 1017.09 1017.40 1017.70
1017.66 1018.46 1019.29 1019.99 1020.46 1020.58 1020.35 1019.78 1018.96 1018.00 1017.03 1016.13 1015.38 1014.78 1014.31 1013.91 1013.53 1013.14 1012.73 1012.31 1011.94 1011.67 1011.54 1011.59 1011.81 1012.15 1012.58 1013.02 1013.43 1013.78 1014.05 1014.26 1014.44 1014.60 1014.78 1014.97 1015.17 1015.38 1015.58 1015.76 1015.93 1016.10 1016.29 1016.50 1016.76 1017.04 1017.35 1017.66 1017.95
1018.33 1019.13 1019.92 1020.57 1020.98 1021.07 1020.84 1020.31 1019.57 1018.72 1017.85 1017.05 1016.35 1015.76 1015.23 1014.74 1014.25 1013.72 1013.17 1012.63 1012.16 1011.81 1011.62 1011.62 1011.79 1012.10 1012.50 1012.92 1013.32 1013.67 1013.95 1014.19 1014.39 1014.57 1014.75 1014.95 1015.15 1015.36 1015.57 1015.77 1015.98 1016.20 1016.44 1016.71 1017.01 1017.32 1017.64 1017.94 1018.21
1018.97 1019.74 1020.48 1021.08 1021.45 1021.54 1021.35 1020.91 1020.30 1019.61 1018.90 1018.22 1017.59 1017.00 1016.42 1015.83 1015.18 1014.50 1013.79 1013.10 1012.51 1012.05 1011.77 1011.69 1011.79 1012.03 1012.36 1012.74 1013.12 1013.46 1013.78 1014.05 1014.30 1014.53 1014.77 1015.00 1015.23 1015.45 1015.67 1015.90 1016.13 1016.38 1016.66 1016.97 1017.29 1017.62 1017.93 1018.21 1018.46
1019.60 1020.33 1021.01 1021.54 1021.87 1021.96 1021.82 1021.49 1021.03 1020.51 1019.96 1019.41 1018.86 1018.28 1017.65 1016.95 1016.16 1015.30 1014.44 1013.61 1012.88 1012.31 1011.93 1011.75 1011.75 1011.90 1012.16 1012.48 1012.82 1013.17 1013.51 1013.85 1014.17 1014.50 1014.81 1015.10 1015.39 1015.65 1015.89 1016.13 1016.38 1016.65 1016.94 1017.26 1017.58 1017.90 1018.20 1018.46 1018.68
1020.27 1020.95 1021.54 1021.99 1022.25 1022.31 1022.21 1021.97 1021.65 1021.28 1020.89 1020.46 1019.97 1019.40 1018.72 1017.91 1016.99 1015.99 1014.98 1014.02 1013.17 1012.50 1012.02 1011.74 1011.65 1011.71 1011.88 1012.14 1012.45 1012.80 1013.18 1013.59 1014.01 1014.44 1014.85 1015.24 1015.59 1015.90 1016.18 1016.43 1016.68 1016.94 1017.23 1017.54 1017.85 1018.16 1018.43 1018.67 1018.85
1021.06 1021.65 1022.14 1022.46 1022.63 1022.63 1022.52 1022.33 1022.10 1021.85 1021.57 1021.23 1020.80 1020.23 1019.50 1018.60 1017.56 1016.45 1015.32 1014.26 1013.33 1012.57 1012.01 1011.65 1011.48 1011.45 1011.55 1011.74 1012.02 1012.37 1012.79 1013.27 1013.80 1014.34 1014.86 1015.35 1015.78 1016.15 1016.46 1016.72 1016.97 1017.22 1017.49 1017.78 1018.08 1018.37 1018.63 1018.84 1019.00
1022.00 1022.50 1022.85 1023.03 1023.05 1022.95 1022.78 1022.58 1022.38 1022.20 1021.99 1021.71 1021.31 1020.74 1019.97 1019.00 1017.88 1016.67 1015.46 1014.32 1013.33 1012.52 1011.90 1011.49 1011.25 1011.15 1011.19 1011.33 1011.58 1011.93 1012.38 1012.93 1013.53 1014.17 1014.80 1015.38 1015.89 1016.31 1016.66 1016.94 1017.19 1017.44 1017.70 1017.98 1018.26 1018.54 1018.79 1018.99 1019.15
1023.12 1023.51 1023.71 1023.72 1023.57 1023.32 1023.04 1022.78 1022.57 1022.40 1022.23 1021.98 1021.59 1021.01 1020.21 1019.19 1018.00 1016.73 1015.46 1014.27 1013.23 1012.38 1011.74 1011.28 1011.00 1010.86 1010.85 1010.95 1011.18 1011.52 1011.98 1012.56 1013.22 1013.93 1014.63 1015.29 1015.86 1016.34 1016.73 1017.04 1017.31 1017.56 1017.83 1018.11 1018.40 1018.69 1018.95 1019.17 1019.34
1024.39 1024.68 1024.72 1024.54 1024.20 1023.78 1023.37 1023.02 1022.75 1022.56 1022.39 1022.15 1021.77 1021.18 1020.35 1019.29 1018.06 1016.74 1015.42 1014.19 1013.11 1012.24 1011.57 1011.09 1010.79 1010.62 1010.58 1010.66 1010.86 1011.18 1011.64 1012.22 1012.90 1013.63 1014.36 1015.06 1015.68 1016.21 1016.64 1017.00 1017.30 1017.59 1017.89 1018.20 1018.52 1018.84 1019.14 1019.39 1019.59
1025.75 1025.92 1025.82 1025.46 1024.94 1024.35 1023.79 1023.33 1023.00 1022.78 1022.59 1022.35 1021.97 1021.38 1020.54 1019.46 1018.19 1016.82 1015.45 1014.17 1013.06 1012.14 1011.45 1010.95 1010.64 1010.46 1010.41 1010.47 1010.65 1010.95 1011.38 1011.93 1012.58 1013.29 1014.02 1014.73 1015.37 1015.94 1016.42 1016.83 1017.19 1017.54 1017.89 1018.26 1018.63 1019.00 1019.35 1019.66 1019.92
1027.07 1027.15 1026.90 1026.40 1025.72 1024.99 1024.30 1023.74 1023.34 1023.08 1022.89 1022.65 1022.29 1021.70 1020.86 1019.76 1018.46 1017.05 1015.62 1014.28 1013.11 1012.15 1011.41 1010.90 1010.57 1010.39 1010.34 1010.41 1010.57 1010.85 1011.23 1011.73 1012.32 1012.97 1013.65 1014.33 1014.97 1015.56 1016.09 1016.57 1017.01 1017.43 1017.86 1018.30 1018.74 1019.18 1019.60 1019.97 1020.28
1028.23 1028.23 1027.88 1027.26 1026.46 1025.62 1024.84 1024.22 1023.77 1023.48 1023.28 1023.06 1022.72 1022.16 1021.33 1020.23 1018.90 1017.44 1015.95 1014.54 1013.28 1012.25 1011.46 1010.90 1010.56 1010.40 1010.36 1010.44 1010.60 1010.86 1011.20 1011.63 1012.14 1012.70 1013.31 1013.94 1014.55 1015.15 1015.72 1016.26 1016.78 1017.30 1017.81 1018.33 1018.84 1019.35 1019.83 1020.26 1020.64
1029.14 1029.06 1028.64 1027.95 1027.09 1026.19 1025.36 1024.70 1024.22 1023.93 1023.74 1023.54 1023.22 1022.69 1021.89 1020.80 1019.46 1017.96 1016.40 1014.90 1013.55 1012.43 1011.56 1010.96 1010.60 1010.44 1010.42 1010.52 1010.71 1010.96 1011.27 1011.63 1012.05 1012.52 1013.04 1013.59 1014.17 1014.75 1015.35 1015.94 1016.54 1017.14 1017.74 1018.33 1018.91 1019.47 1020.00 1020.49 1020.92
1029.73 1029.60 1029.15 1028.44 1027.56 1026.65 1025.82 1025.14 1024.66 1024.36 1024.17 1023.99 1023.71 1023.21 1022.45 1021.38 1020.05 1018.52 1016.90 1015.32 1013.87 1012.65 1011.70 1011.03 1010.64 1010.48 1010.49 1010.62 1010.84 1011.10 1011.40 1011.71 1012.06 1012.44 1012.86 1013.33 1013.85 1014.41 1015.01 1015.65 1016.30 1016.97 1017.63 1018.28 1018.91 1019.51 1020.08 1020.61 1021.08
1030.02 1029.87 1029.42 1028.74 1027.90 1027.03 1026.22 1025.54 1025.06 1024.75 1024.55 1024.37 1024.10 1023.64 1022.91 1021.88 1020.57 1019.04 1017.39 1015.74 1014.21 1012.89 1011.84 1011.10 1010.66 1010.49 1010.52 1010.69 1010.95 1011.25 1011.55 1011.84 1012.14 1012.44 1012.78 1013.16 1013.62 1014.14 1014.73 1015.38 1016.07 1016.78 1017.48 1018.17 1018.83 1019.45 1020.04 1020.58 1021.09
1030.09 1029.94 1029.55 1028.94 1028.19 1027.39 1026.62 1025.96 1025.46 1025.11 1024.87 1024.66 1024.37 1023.92 1023.23 1022.25 1020.98 1019.48 1017.82 1016.14 1014.54 1013.13 1011.98 1011.16 1010.66 1010.46 1010.50 1010.70 1011.00 1011.34 1011.67 1011.98 1012.24 1012.50 1012.77 1013.09 1013.47 1013.94 1014.50 1015.14 1015.84 1016.56 1017.29 1017.99 1018.66 1019.28 1019.87 1020.42 1020.95
1030.06 1029.96 1029.66 1029.18 1028.55 1027.85 1027.14 1026.49 1025.94 1025.51 1025.18 1024.88 1024.55 1024.08 1023.41 1022.48 1021.27 1019.82 1018.20 1016.51 1014.87 1013.38 1012.14 1011.22 1010.65 1010.39 1010.41 1010.63 1010.97 1011.36 1011.73 1012.06 1012.34 1012.58 1012.82 1013.08 1013.41 1013.82 1014.33 1014.94 1015.62 1016.33 1017.05 1017.75 1018.41 1019.03 1019.61 1020.16 1020.68
1030.07 1030.07 1029.92 1029.61 1029.14 1028.56 1027.90 1027.24 1026.61 1026.06 1025.58 1025.14 1024.70 1024.17 1023.50 1022.61 1021.47 1020.10 1018.54 1016.88 1015.22 1013.68 1012.35 1011.33 1010.65 1010.31 1010.27 1010.48 1010.83 1011.26 1011.70 1012.08 1012.40 1012.66 1012.88 1013.11 1013.39 1013.76 1014.22 1014.78 1015.42 1016.10 1016.80 1017.49 1018.13 1018.74 1019.30 1019.84 1020.35
1030.26 1030.40 1030.44 1030.33 1030.05 1029.59 1028.99 1028.29 1027.54 1026.82 1026.14 1025.51 1024.91 1024.29 1023.58 1022.71 1021.65 1020.37 1018.90 1017.29 1015.63 1014.05 1012.63 1011.49 1010.68 1010.22 1010.10 1010.25 1010.61 1011.06 1011.55 1012.01 1012.38 1012.69 1012.94 1013.17 1013.42 1013.75 1014.16 1014.66 1015.26 1015.90 1016.57 1017.24 1017.87 1018.46 1019.01 1019.53 1020.03
1030.69 1031.02 1031.28 1031.40 1031.30 1030.96 1030.40 1029.64 1028.75 1027.82 1026.90 1026.03 1025.23 1024.47 1023.70 1022.85 1021.85 1020.66 1019.28 1017.74 1016.11 1014.49 1012.99 1011.72 1010.76 1010.16 1009.91 1009.98 1010.30 1010.76 1011.30 1011.82 1012.28 1012.66 1012.96 1013.22 1013.48 1013.78 1014.15 1014.61 1015.15 1015.76 1016.40 1017.04 1017.66 1018.24 1018.78 1019.29 1019.77
1031.38 1031.92 1032.41 1032.74 1032.82 1032.60 1032.05 1031.21 1030.16 1028.99 1027.81 1026.69 1025.67 1024.75 1023.89 1023.03 1022.09 1020.99 1019.71 1018.24 1016.64 1015.00 1013.42 1012.01 1010.89 1010.12 1009.73 1009.68 1009.93 1010.38 1010.95 1011.54 1012.09 1012.56 1012.94 1013.26 1013.55 1013.84 1014.19 1014.61 1015.11 1015.68 1016.30 1016.92 1017.54 1018.11 1018.65 1019.15 1019.61
1032.26 1033.01 1033.71 1034.24 1034.47 1034.32 1033.76 1032.83 1031.62 1030.22 1028.78 1027.40 1026.16 1025.08 1024.13 1023.25 1022.35 1021.33 1020.14 1018.76 1017.20 1015.54 1013.89 1012.36 1011.07 1010.13 1009.56 1009.37 1009.53 1009.94 1010.53 1011.18 1011.83 1012.40 1012.88 1013.27 1013.61 1013.93 1014.27 1014.67 1015.14 1015.69 1016.28 1016.89 1017.50 1018.09 1018.63 1019.12 1019.57
1033.24 1034.16 1035.03 1035.70 1036.02 1035.91 1035.33 1034.30 1032.92 1031.31 1029.64 1028.04 1026.60 1025.38 1024.35 1023.45 1022.58 1021.65 1020.55 1019.25 1017.74 1016.08 1014.37 1012.73 1011.30 1010.17 1009.43 1009.10 1009.14 1009.50 1010.08 1010.78 1011.50 1012.17 1012.76 1013.24 1013.65 1014.02 1014.38 1014.77 1015.23 1015.75 1016.33 1016.94 1017.55 1018.15 1018.70 1019.19 1019.63
1034.20 1035.23 1036.19 1036.92 1037.28 1037.16 1036.52 1035.39 1033.87 1032.10 1030.26 1028.48 1026.90 1025.57 1024.49 1023.58 1022.76 1021.90 1020.90 1019.68 1018.23 1016.59 1014.85 1013.13 1011.56 1010.29 1009.38 1008.89 1008.82 1009.10 1009.65 1010.37 1011.15 1011.91 1012.59 1013.18 1013.67 1014.09 1014.48 1014.89 1015.35 1015.86 1016.43 1017.03 1017.66 1018.27 1018.83 1019.34 1019.78
1035.01 1036.06 1037.02 1037.73 1038.05 1037.86 1037.14 1035.93 1034.32 1032.45 1030.50 1028.64 1026.99 1025.61 1024.51 1023.63 1022.86 1022.08 1021.16 1020.04 1018.66 1017.06 1015.32 1013.55 1011.90 1010.50 1009.46 1008.83 1008.62 1008.81 1009.30 1010.01 1010.82 1011.65 1012.41 1013.08 1013.65 1014.14 1014.58 1015.01 1015.47 1015.98 1016.55 1017.16 1017.79 1018.41 1018.99 1019.52 1019.98
1035.59 1036.58 1037.44 1038.04 1038.24 1037.95 1037.16 1035.88 1034.22 1032.33 1030.37 1028.51 1026.87 1025.51 1024.43 1023.60 1022.89 1022.19 1021.37 1020.34 1019.05 1017.52 1015.82 1014.05 1012.35 1010.87 1009.72 1008.96 1008.63 1008.71 1009.12 1009.78 1010.59 1011.43 1012.25 1012.98 1013.62 1014.17 1014.65 1015.11 1015.59 1016.11 1016.67 1017.28 1017.91 1018.54 1019.15 1019.70 1020.17
Thickness
5703 5704 5703 5695 5677 5661 5664 5675 5687 5693 5698 5705 5709 5707 5702 5700 5699 5696 5708 5716 5717 5716 5715 5715 5714 5714 5715 5715 5716 5715 5715 5715 5715 5715 5715 5715 5716 5716 5716 5716 5716 5716 5716 5715 5715 5714 5714 5714 5713
5697 5698 5691 5678 5660 5649 5658 5674 5683 5691 5699 5703 5703 5702 5697 5696 5701 5702 5705 5710 5712 5712 5711 5711 5711 5711 5711 5711 5712 5712 5712 5712 5712 5712 5711 5712 5712 5712 5712 5712 5711 5711 5711 5711 5710 5710 5710 5709 5709
5692 5690 5675 5661 5650 5649 5661 5676 5681 5689 5696 5697 5694 5694 5692 5691 5696 5698 5703 5706 5706 5707 5707 5707 5706 5706 5707 5707 5707 5708 5708 5708 5708 5708 5708 5708 5708 5708 5707 5707 5707 5706 5706 5706 5705 5705 5705 5704 5704
5682 5673 5662 5649 5648 5656 5666 5674 5677 5681 5687 5690 5687 5682 5685 5690 5692 5695 5699 5701 5701 5701 5702 5702 5702 5702 5702 5702 5703 5703 5703 5703 5704 5704 5704 5703 5704 5703 5703 5702 5702 5701 5701 5701 5700 5700 5700 5699 5699
5670 5657 5645 5639 5647 5657 5665 5670 5672 5672 5675 5679 5678 5673 5676 5683 5687 5690 5692 5694 5695 5695 5696 5697 5697 5697 5697 5697 5698 5698 5698 5698 5699 5699 5699 5699 5699 5699 5698 5697 5697 5696 5696 5696 5695 5695 5694 5694 5694
5651 5643 5631 5632 5643 5654 5660 5664 5665 5664 5666 5670 5669 5666 5668 5675 5679 5682 5685 5686 5689 5690 5691 5691 5691 5691 5692 5692 5692 5693 5693 5693 5693 5694 5693 5693 5694 5694 5693 5692 5692 5691 5691 5690 5690 5689 5689 5688 5688
5640 5631 5628 5633 5638 5645 5654 5658 5655 5655 5657 5661 5663 5657 5660 5666 5671 5675 5677 5679 5681 5683 5684 5685 5685 5685 5686 5686 5687 5687 5687 5687 5688 5688 5687 5687 5688 5688 5688 5687 5686 5686 5686 5685 5684 5684 5683 5683 5682
5637 5626 5626 5627 5632 5638 5648 5650 5651 5649 5651 5657 5657 5649 5649 5657 5663 5667 5669 5670 5672 5675 5676 5677 5678 5679 5680 5681 5681 5681 5681 5681 5681 5681 5681 5682 5682 5682 5682 5682 5681 5681 5680 5680 5679 5678 5677 5676 5676
5633 5616 5614 5623 5627 5632 5640 5640 5643 5645 5645 5646 5646 5647 5650 5654 5655 5657 5658 5661 5663 5665 5667 5669 5671 5672 5673 5674 5674 5674 5675 5675 5675 5675 5675 5675 5676 5676 5676 5676 5675 5675 5674 5674 5673 5672 5671 5670 5670
5618 5606 5614 5623 5625 5626 5630 5631 5632 5632 5632 5632 5634 5638 5643 5644 5645 5646 5649 5651 5654 5656 5658 5661 5663 5664 5666 5667 5667 5668 5668 5668 5668 5669 5669 5669 5669 5670 5670 5670 5669 5668 5668 5668 5667 5666 5664 5663 5663
5612 5607 5612 5616 5619 5619 5620 5622 5624 5620 5619 5623 5625 5628 5631 5633 5635 5637 5640 5643 5646 5648 5650 5652 5655 5657 5658 5659 5660 5660 5661 5661 5661 5662 5663 5663 5663 5663 5663 5662 5662 5662 5661 5661 5660 5659 5657 5656 5656
5605 5606 5607 5608 5610 5609 5608 5610 5610 5611 5614 5619 5620 5622 5623 5624 5626 5629 5631 5634 5637 5640 5643 5644 5647 5649 5650 5652 5652 5653 5653 5653 5654 5654 5655 5656 5656 5656 5656 5656 5656 5656 5655 5654 5653 5652 5650 5649 5648
5597 5597 5599 5599 5599 5598 5598 5597 5598 5601 5605 5609 5610 5612 5612 5614 5617 5620 5623 5626 5629 5631 5634 5636 5638 5640 5642 5644 5645 5646 5646 5646 5646 5647 5648 5649 5649 5649 5649 5648 5649 5648 5648 5647 5646 5644 5643 5642 5641
5589 5588 5588 5589 5590 5589 5586 5587 5588 5593 5595 5597 5599 5600 5602 5604 5608 5610 5613 5616 5619 5622 5625 5627 5630 5631 5633 5635 5637 5637 5638 5638 5638 5639 5640 5641 5641 5641 5641 5642 5641 5641 5641 5640 5639 5638 5636 5635 5634
5581 5577 5577 5580 5580 5579 5577 5575 5578 5584 5585 5586 5588 5590 5592 5594 5598 5601 5605 5608 5611 5614 5617 5619 5621 5623 5624 5626 5627 5628 5630 5630 5630 5630 5631 5632 5633 5633 5633 5633 5634 5634 5633 5633 5632 5631 5629 5627 5625
5568 5561 5558 5568 5570 5569 5563 5561 5572 5573 5575 5575 5577 5579 5581 5584 5588 5592 5596 5599 5601 5604 5607 5610 5612 5614 5615 5617 5618 5618 5619 5620 5621 5621 5622 5623 5624 5624 5625 5625 5626 5626 5625 5625 5624 5623 5621 5618 5617
5548 5542 5546 5554 5560 5557 5550 5550 5562 5563 5564 5565 5567 5568 5571 5574 5579 5582 5587 5589 5592 5595 5598 5600 5603 5604 5606 5607 5608 5609 5609 5610 5611 5612 5614 5615 5615 5615 5616 5617 5617 5618 5617 5617 5616 5614 5613 5610 5608
5534 5533 5537 5541 5548 5545 5539 5541 5551 5553 5554 5554 5557 5559 5561 5565 5570 5573 5577 5580 5583 5585 5588 5591 5593 5595 5596 5597 5598 5598 5599 5600 5602 5603 5605 5607 5607 5607 5608 5608 5608 5609 5609 5608 5607 5606 5605 5603 5600
5534 5531 5529 5535 5540 5535 5531 5535 5542 5545 5544 5545 5547 5550 5553 5557 5563 5565 5568 5571 5573 5576 5579 5581 5584 5585 5586 5587 5588 5588 5589 5591 5592 5593 5596 5598 5599 5599 5599 5599 5599 5600 5600 5600 5599 5599 5597 5594 5592
5526 5522 5521 5526 5531 5527 5523 5528 5537 5538 5538 5541 5543 5544 5547 5549 5551 5555 5557 5561 5563 5566 5569 5572 5574 5576 5577 5579 5580 5581 5581 5582 5584 5585 5587 5589 5590 5590 5591 5591 5591 5591 5591 5591 5591 5590 5589 5587 5586
5516 5511 5511 5513 5517 5518 5513 5517 5528 5533 5534 5536 5537 5538 5539 5540 5542 5545 5548 5551 5553 5556 5559 5563 5565 5567 5568 5570 5571 5572 5572 5572 5574 5575 5577 5580 5581 5582 5582 5583 5583 5583 5583 5583 5583 5583 5582 5581 5578
5508 5512 5510 5508 5499 5493 5501 5491 5514 5520 5522 5527 5527 5527 5528 5532 5534 5537 5540 5543 5545 5549 5551 5554 5556 5558 5560 5561 5562 5564 5565 5565 5566 5567 5568 5570 5572 5573 5573 5574 5574 5575 5575 5575 5575 5575 5575 5574 5572
5503 5507 5502 5497 5487 5479 5483 5477 5498 5507 5509 5516 5518 5520 5521 5523 5525 5529 5533 5536 5538 5540 5542 5545 5547 5550 5551 5553 5554 5555 5556 5557 5557 5558 5559 5560 5562 5563 5564 5565 5566 5566 5566 5566 5567 5567 5567 5566 5566
5499 5493 5486 5474 5467 5466 5476 5470 5485 5490 5501 5508 5511 5512 5514 5516 5518 5521 5525 5527 5529 5530 5533 5535 5537 5539 5542 5544 5546 5548 5548 5549 5549 5549 5550 5551 5552 5553 5555 5557 5557 5557 5558 5558 5558 5558 5558 5558 5558
5485 5472 5460 5454 5447 5460 5473 5470 5481 5494 5498 5501 5502 5504 5505 5507 5509 5512 5514 5517 5519 5521 5523 5525 5527 5529 5532 5535 5537 5539 5541 5541 5542 5541 5542 5542 5543 5545 5546 5547 5548 5549 5549 5550 5550 5550 5550 5550 5550
5473 5468 5453 5447 5443 5453 5462 5461 5479 5489 5491 5494 5495 5495 5496 5498 5500 5503 5505 5507 5509 5511 5513 5515 5518 5521 5522 5525 5527 5530 5531 5533 5533 5534 5535 5535 5535 5537 5538 5538 5539 5540 5540 5540 5540 5541 5541 5541 5541
5466 5458 5457 5442 5433 5434 5448 5458 5474 5483 5482 5482 5483 5483 5484 5486 5490 5493 5495 5497 5499 5501 5503 5506 5508 5511 5513 5515 5517 5519 5521 5523 5524 5525 5526 5526 5526 5527 5528 5529 5529 5530 5531 5531 5531 5531 5531 5531 5532
5462 5454 5440 5433 5431 5434 5445 5449 5461 5469 5470 5472 5470 5469 5471 5474 5477 5482 5484 5487 5489 5491 5493 5495 5498 5501 5503 5504 5506 5509 5511 5514 5515 5515 5516 5516 5517 5518 5519 5518 5519 5520 5522 5522 5522 5522 5522 5522 5522
5449 5444 5436 5424 5422 5427 5429 5449 5465 5462 5463 5462 5460 5460 5461 5463 5466 5469 5472 5475 5478 5480 5482 5485 5488 5490 5492 5494 5496 5498 5500 5503 5504 5504 5505 5506 5507 5507 5509 5509 5510 5510 5512 5512 5512 5513 5513 5513 5513
5444 5438 5428 5425 5419 5414 5418 5439 5462 5459 5456 5454 5452 5452 5452 5453 5454 5457 5461 5464 5466 5469 5472 5475 5477 5479 5482 5484 5486 5487 5489 5491 5492 5493 5494 5495 5496 5497 5499 5499 5500 5500 5502 5503 5503 5503 5503 5503 5503